Tracking 17844 objects as of 28-August-2016
HD Live streaming from Space Station
objects crossing your sky now

AVUM R/B

Track AVUM R/B now!
10-day predictions


NORAD ID: 38086
Int'l Code: 2012-006K
Perigee: 228.6 km
Apogee: 431.4 km
Inclination: 69.5 °
Period: 91.0 minutes
Semi major axis: 6700 km
RCS: 4.0982 m2 (large)
Launch date: February 13, 2012
Source: European Space Agency (ESA)
Launch site: FRENCH GUIANA (FRGUI)

Note: This is a ROCKET BODY
Your satellite tracking list
Your tracking list is empty





NASA's NSSDC Master Catalog

Two Line Element Set (TLE):
1 38086U 12006K   16241.18191292  .00091232  41948-5  17872-3 0  9997
2 38086  69.4600  25.6167 0151364 255.2781 103.1602 15.82682939244689
Source of the keplerian elements: AFSPC

N2YO: 460